This is the latest recevied weather packets stored in our database for station/object EA2MKR. If no packets are shown the sender has not sent any weather packets the latest 10 day(s).
| Time | Temp. | Humidity | Pressure | Rain* | Wind** | Luminosity | Snow |
|---|---|---|---|---|---|---|---|
| 1777767900 | 11.11° C | 95% | 952.8 hPa | 0 mm | - | - | - |
| 1777767482 | 11.67° C | 95% | 952.8 hPa | 0 mm | - | - | - |
| 1777767300 | 11.67° C | 95% | 952.9 hPa | 0 mm | - | - | - |
| 1777766883 | 11.67° C | 95% | 952.8 hPa | 0 mm | - | - | - |
| 1777766582 | 11.67° C | 94% | 952.7 hPa | 0 mm | - | - | - |
| 1777766282 | 11.67° C | 94% | 952.9 hPa | 0 mm | - | - | - |
| 1777765982 | 11.67° C | 94% | 952.9 hPa | 0 mm | - | - | - |
| 1777765682 | 11.67° C | 94% | 952.8 hPa | 0.25 mm | - | - | - |
| 1777765499 | 11.67° C | 95% | 952.9 hPa | 0.51 mm | - | - | - |
| 1777765199 | 11.67° C | 95% | 953 hPa | 0.51 mm | - | - | - |
| 1777764782 | 11.67° C | 95% | 953 hPa | 0.51 mm | - | - | - |
| 1777764479 | 11.67° C | 95% | 952.9 hPa | 0.76 mm | - | - | - |
| 1777764174 | 11.67° C | 95% | 953.2 hPa | 1.02 mm | - | - | - |
| 1777763873 | 11.67° C | 95% | 953.2 hPa | 1.52 mm | - | - | - |
| 1777763575 | 11.67° C | 95% | 953.2 hPa | 1.52 mm | - | - | - |
| 1777763274 | 11.67° C | 95% | 953.1 hPa | 1.78 mm | - | - | - |
| 1777763098 | 11.67° C | 95% | 953.1 hPa | 1.78 mm | - | - | - |
| 1777762673 | 11.67° C | 95% | 953 hPa | 2.03 mm | - | - | - |
| 1777762374 | 11.67° C | 95% | 952.9 hPa | 2.29 mm | - | - | - |
| 1777762074 | 11.67° C | 95% | 952.9 hPa | 2.29 mm | - | - | - |
| 1777761898 | 11.67° C | 95% | 952.9 hPa | 2.29 mm | - | - | - |
| 1777761598 | 11.67° C | 95% | 952.9 hPa | 2.29 mm | - | - | - |
| 1777761175 | 11.67° C | 95% | 952.9 hPa | 2.29 mm | - | - | - |
| 1777760874 | 11.67° C | 95% | 953 hPa | 2.29 mm | - | - | - |
| 1777760573 | 11.67° C | 95% | 953 hPa | 2.29 mm | - | - | - |
* Rain latest hour (hover to see other rain measurements)
** Current wind speed in m/s (hover to see current wind gust speed)